Regional Weather Roundup
Issued by NWS Newport/Morehead, NC

Current Version | Previous Version | Graphics & Text | Print | Product List | Glossary Off
Versions: 1 2 3 4 5 6 7 8 9 10 11 12 13 14 15 16 17 18 19 20 21 22 23 24 25 26 27 28 29 30 31 32 33 34 35 36 37 38 39 40 41 42 43 44 45 46 47 48 49 50

000
ASUS42 KMHX 281024
RWRMHX
WEATHER ROUNDUP FOR EASTERN NORTH CAROLINA
NATIONAL WEATHER SERVICE NEWPORT/MOREHEAD CITY NC
500 AM EST SAT FEB 28 2015

NOTE: "FAIR" INDICATES FEW OR NO CLOUDS BELOW 12,000 FEET
WITH NO SIGNIFICANT WEATHER AND/OR OBSTRUCTIONS TO VISIBILITY

NCZ015>017-031-032-045>047-102-103-281100-
NORTH COAST

CITY           SKY/WX    TMP DP  RH WIND       PRES   REMARKS
EDENTON        CLEAR     27  21  77 NE6       30.69R
ELIZABETH CITY CLEAR     28  17  63 N10       30.69R WCI  19
KITTY HAWK     SUNNY     32  21  65 N12G23    30.64R
MANTEO         CLEAR     30  21  69 N17G23    30.65R WCI  18

$$

NCZ045>047-081-094-103-104-281100-
CENTRAL COAST

CITY           SKY/WX    TMP DP  RH WIND       PRES   REMARKS
FRISCO         PTCLDY    34  28  79 N14G24    30.60R
SWANQUARTER      N/A     30 N/A N/A N8G16     30.62R

$$

NCZ095-097-098-100-101-281100-
SOUTHERN COAST

CITY           SKY/WX    TMP DP  RH WIND       PRES   REMARKS
BEAUFORT       MOCLDY    32  29  88 NE13      30.60S
CEDAR ISLAND     N/A     34 N/A N/A N16G30    30.65S
JACKSONVILLE   PTCLDY    30  27  88 NE9       30.60R
PINEY ISLAND     N/A    N/A N/A N/A MISG      30.62R
WILMINGTON     MOCLDY    30  27  88 N10       30.58R


$$

NCZ011>013-027>030-043-044-078>080-089-090>093-098-281100-
COASTAL PLAIN

CITY           SKY/WX    TMP DP  RH WIND       PRES   REMARKS
AHOSKIE        CLEAR     23  19  85 N6        30.71R
CLINTON        PTCLDY    30  27  90 NE7       30.64R
ELIZABETHTOWN  PTCLDY    30  28  93 CALM      30.62R FOG
GOLDSBORO      FAIR      29  28  97 NE8       30.62R
GREENVILLE     CLEAR     28  21  74 NE10      30.66R WCI  19
HAVELOCK       PTCLDY    32  26  78 NE14      30.62R
KENANSVILLE    CLEAR     29  26  90 N7        30.64R
KINSTON        CLEAR     29  23  76 NE14      30.65R WCI  19
NEW BERN       CLEAR     30  25  81 NE12      30.63R
RICHLANDS      MOCLDY    28  25  86 N13       30.63R WCI  18
ROCKY MOUNT    CLEAR     27  21  78 NE9       30.67R
WASHINGTON     CLEAR     28  21  75 NE12      30.66R WCI  18
WHITEVILLE     PTCLDY    32  28  84 N6        30.59R

$$

AMZ130-135-150-152-154-156-158-170-250-252-270-ANZ085-086-088-633-658-670-281100-
MARINE OBSERVATIONS

STATION/POSITION TIME  TEMP    WIND        PRES    WAVE   SWELL
                       AIR SEA DIR/SP/G            HT/PER HT/PER
                 (UTC) (F)     (DEG/KT/KT) (MB)    (FT/S) (FT/S)
CHESAPEAKE LIGHT 1000   28      30/ 18/ 21 1040.0
64 E VA BEACH    0950   37 59   10/ 19/ 25 1037.0    8/11   3/11
DUCK             1000   31 34   20/ 23/ 26 1037.4
2 E DUCK         0911      35                N/A     6/ 6   2/11
10 NE DUCK       0922      36                N/A     7/ 6   2/11
OREGON INLET     1000   33 38  360/ 16/ 22 1037.5
HATTERAS CG      1000   35 40   10/ 23/ 28 1036.5
CAPE LOOKOUT     1000   34      20/ 18/ 22 1035.7
BEAUFORT LAB     1000   33 41   20/ 14/ 18 1035.1
27 SE WRIGHTSVLE NOT AVBL
5 SE WRIGHTSVLE  NOT AVBL
225 S CAPE HAT   0950   66 70   40/ 19/ 23 1028.4   10/10   5/10
41 SE CHARLESTON 0950   56 65   50/ 23/ 27 1030.0    7/ 6   3/11

$$


USA.gov is the U.S. government's official web portal to all federal, state and local government web resources and services.